Index of /20260426/WXO-DD/model_caps/3km/12/031
Name Last modified Size Description
Parent Directory -
20260426T12Z_MSC_CAPS_AbsoluteVorticity_IsbL-0250_RLatLon0.03_PT031H.grib2 2026-04-26 18:14 1.0M
20260426T12Z_MSC_CAPS_AbsoluteVorticity_IsbL-0500_RLatLon0.03_PT031H.grib2 2026-04-26 18:14 1.3M
20260426T12Z_MSC_CAPS_AbsoluteVorticity_IsbL-0700_RLatLon0.03_PT031H.grib2 2026-04-26 18:14 1.0M
20260426T12Z_MSC_CAPS_AbsoluteVorticity_IsbL-0850_RLatLon0.03_PT031H.grib2 2026-04-26 18:14 1.2M
20260426T12Z_MSC_CAPS_AbsoluteVorticity_IsbL-1000_RLatLon0.03_PT031H.grib2 2026-04-26 18:14 1.4M
20260426T12Z_MSC_CAPS_AirDensity_AGL-120m_RLatLon0.03_PT031H.grib2 2026-04-26 18:14 1.4M
20260426T12Z_MSC_CAPS_AirDensity_AGL-40m_RLatLon0.03_PT031H.grib2 2026-04-26 18:14 1.4M
20260426T12Z_MSC_CAPS_AirDensity_AGL-80m_RLatLon0.03_PT031H.grib2 2026-04-26 18:14 1.4M
20260426T12Z_MSC_CAPS_AirTemp_AGL-120m_RLatLon0.03_PT031H.grib2 2026-04-26 18:14 1.9M
20260426T12Z_MSC_CAPS_AirTemp_AGL-2m_RLatLon0.03_PT031H.grib2 2026-04-26 18:14 2.1M
20260426T12Z_MSC_CAPS_AirTemp_AGL-40m_RLatLon0.03_PT031H.grib2 2026-04-26 18:14 1.9M
20260426T12Z_MSC_CAPS_AirTemp_AGL-80m_RLatLon0.03_PT031H.grib2 2026-04-26 18:14 1.8M
20260426T12Z_MSC_CAPS_AirTemp_IsbL-0050_RLatLon0.03_PT031H.grib2 2026-04-26 18:14 697K
20260426T12Z_MSC_CAPS_AirTemp_IsbL-0100_RLatLon0.03_PT031H.grib2 2026-04-26 18:14 952K
20260426T12Z_MSC_CAPS_AirTemp_IsbL-0150_RLatLon0.03_PT031H.grib2 2026-04-26 18:14 737K
20260426T12Z_MSC_CAPS_AirTemp_IsbL-0175_RLatLon0.03_PT031H.grib2 2026-04-26 18:14 760K
20260426T12Z_MSC_CAPS_AirTemp_IsbL-0200_RLatLon0.03_PT031H.grib2 2026-04-26 18:14 779K
20260426T12Z_MSC_CAPS_AirTemp_IsbL-0225_RLatLon0.03_PT031H.grib2 2026-04-26 18:14 785K
20260426T12Z_MSC_CAPS_AirTemp_IsbL-0250_RLatLon0.03_PT031H.grib2 2026-04-26 18:14 782K
20260426T12Z_MSC_CAPS_AirTemp_IsbL-0275_RLatLon0.03_PT031H.grib2 2026-04-26 18:14 779K
20260426T12Z_MSC_CAPS_AirTemp_IsbL-0300_RLatLon0.03_PT031H.grib2 2026-04-26 18:14 770K
20260426T12Z_MSC_CAPS_AirTemp_IsbL-0350_RLatLon0.03_PT031H.grib2 2026-04-26 18:14 742K
20260426T12Z_MSC_CAPS_AirTemp_IsbL-0400_RLatLon0.03_PT031H.grib2 2026-04-26 18:14 747K
20260426T12Z_MSC_CAPS_AirTemp_IsbL-0450_RLatLon0.03_PT031H.grib2 2026-04-26 18:14 761K
20260426T12Z_MSC_CAPS_AirTemp_IsbL-0500_RLatLon0.03_PT031H.grib2 2026-04-26 18:14 779K
20260426T12Z_MSC_CAPS_AirTemp_IsbL-0550_RLatLon0.03_PT031H.grib2 2026-04-26 18:14 796K
20260426T12Z_MSC_CAPS_AirTemp_IsbL-0600_RLatLon0.03_PT031H.grib2 2026-04-26 18:14 813K
20260426T12Z_MSC_CAPS_AirTemp_IsbL-0650_RLatLon0.03_PT031H.grib2 2026-04-26 18:14 835K
20260426T12Z_MSC_CAPS_AirTemp_IsbL-0700_RLatLon0.03_PT031H.grib2 2026-04-26 18:14 1.0M
20260426T12Z_MSC_CAPS_AirTemp_IsbL-0750_RLatLon0.03_PT031H.grib2 2026-04-26 18:14 1.0M
20260426T12Z_MSC_CAPS_AirTemp_IsbL-0800_RLatLon0.03_PT031H.grib2 2026-04-26 18:14 1.0M
20260426T12Z_MSC_CAPS_AirTemp_IsbL-0850_RLatLon0.03_PT031H.grib2 2026-04-26 18:14 1.1M
20260426T12Z_MSC_CAPS_AirTemp_IsbL-0875_RLatLon0.03_PT031H.grib2 2026-04-26 18:14 1.1M
20260426T12Z_MSC_CAPS_AirTemp_IsbL-0900_RLatLon0.03_PT031H.grib2 2026-04-26 18:14 1.0M
20260426T12Z_MSC_CAPS_AirTemp_IsbL-0925_RLatLon0.03_PT031H.grib2 2026-04-26 18:14 1.0M
20260426T12Z_MSC_CAPS_AirTemp_IsbL-0950_RLatLon0.03_PT031H.grib2 2026-04-26 18:14 1.2M
20260426T12Z_MSC_CAPS_AirTemp_IsbL-0970_RLatLon0.03_PT031H.grib2 2026-04-26 18:14 1.2M
20260426T12Z_MSC_CAPS_AirTemp_IsbL-0985_RLatLon0.03_PT031H.grib2 2026-04-26 18:14 1.1M
20260426T12Z_MSC_CAPS_AirTemp_IsbL-1000_RLatLon0.03_PT031H.grib2 2026-04-26 18:14 1.1M
20260426T12Z_MSC_CAPS_AirTemp_IsbL-1015_RLatLon0.03_PT031H.grib2 2026-04-26 18:14 1.0M
20260426T12Z_MSC_CAPS_Albedo_Sfc_RLatLon0.03_PT031H.grib2 2026-04-26 18:14 2.7M
20260426T12Z_MSC_CAPS_CAPE_Sfc_RLatLon0.03_PT031H.grib2 2026-04-26 18:14 43K
20260426T12Z_MSC_CAPS_CloudWater_EAtm_RLatLon0.03_PT031H.grib2 2026-04-26 18:14 1.4M
20260426T12Z_MSC_CAPS_ConvectivePrecip-Accum_Sfc_RLatLon0.03_PT031H.grib2 2026-04-26 18:14 4.4M
20260426T12Z_MSC_CAPS_DewPointDepression_AGL-120m_RLatLon0.03_PT031H.grib2 2026-04-26 18:14 2.1M
20260426T12Z_MSC_CAPS_DewPointDepression_AGL-2m_RLatLon0.03_PT031H.grib2 2026-04-26 18:14 2.2M
20260426T12Z_MSC_CAPS_DewPointDepression_AGL-40m_RLatLon0.03_PT031H.grib2 2026-04-26 18:14 2.2M
20260426T12Z_MSC_CAPS_DewPointDepression_AGL-80m_RLatLon0.03_PT031H.grib2 2026-04-26 18:14 2.2M
20260426T12Z_MSC_CAPS_DewPointDepression_IsbL-0050_RLatLon0.03_PT031H.grib2 2026-04-26 18:14 3.4K
20260426T12Z_MSC_CAPS_DewPointDepression_IsbL-0100_RLatLon0.03_PT031H.grib2 2026-04-26 18:14 112K
20260426T12Z_MSC_CAPS_DewPointDepression_IsbL-0150_RLatLon0.03_PT031H.grib2 2026-04-26 18:14 96K
20260426T12Z_MSC_CAPS_DewPointDepression_IsbL-0175_RLatLon0.03_PT031H.grib2 2026-04-26 18:14 209K
20260426T12Z_MSC_CAPS_DewPointDepression_IsbL-0200_RLatLon0.03_PT031H.grib2 2026-04-26 18:14 418K
20260426T12Z_MSC_CAPS_DewPointDepression_IsbL-0225_RLatLon0.03_PT031H.grib2 2026-04-26 18:14 674K
20260426T12Z_MSC_CAPS_DewPointDepression_IsbL-0250_RLatLon0.03_PT031H.grib2 2026-04-26 18:14 873K
20260426T12Z_MSC_CAPS_DewPointDepression_IsbL-0275_RLatLon0.03_PT031H.grib2 2026-04-26 18:14 1.0M
20260426T12Z_MSC_CAPS_DewPointDepression_IsbL-0300_RLatLon0.03_PT031H.grib2 2026-04-26 18:14 1.0M
20260426T12Z_MSC_CAPS_DewPointDepression_IsbL-0350_RLatLon0.03_PT031H.grib2 2026-04-26 18:14 1.1M
20260426T12Z_MSC_CAPS_DewPointDepression_IsbL-0400_RLatLon0.03_PT031H.grib2 2026-04-26 18:14 1.1M
20260426T12Z_MSC_CAPS_DewPointDepression_IsbL-0450_RLatLon0.03_PT031H.grib2 2026-04-26 18:14 1.1M
20260426T12Z_MSC_CAPS_DewPointDepression_IsbL-0500_RLatLon0.03_PT031H.grib2 2026-04-26 18:14 1.2M
20260426T12Z_MSC_CAPS_DewPointDepression_IsbL-0550_RLatLon0.03_PT031H.grib2 2026-04-26 18:14 1.2M
20260426T12Z_MSC_CAPS_DewPointDepression_IsbL-0600_RLatLon0.03_PT031H.grib2 2026-04-26 18:14 1.2M
20260426T12Z_MSC_CAPS_DewPointDepression_IsbL-0650_RLatLon0.03_PT031H.grib2 2026-04-26 18:14 1.3M
20260426T12Z_MSC_CAPS_DewPointDepression_IsbL-0700_RLatLon0.03_PT031H.grib2 2026-04-26 18:14 1.3M
20260426T12Z_MSC_CAPS_DewPointDepression_IsbL-0750_RLatLon0.03_PT031H.grib2 2026-04-26 18:14 1.3M
20260426T12Z_MSC_CAPS_DewPointDepression_IsbL-0800_RLatLon0.03_PT031H.grib2 2026-04-26 18:14 1.3M
20260426T12Z_MSC_CAPS_DewPointDepression_IsbL-0850_RLatLon0.03_PT031H.grib2 2026-04-26 18:14 1.4M
20260426T12Z_MSC_CAPS_DewPointDepression_IsbL-0875_RLatLon0.03_PT031H.grib2 2026-04-26 18:14 1.4M
20260426T12Z_MSC_CAPS_DewPointDepression_IsbL-0900_RLatLon0.03_PT031H.grib2 2026-04-26 18:14 1.4M
20260426T12Z_MSC_CAPS_DewPointDepression_IsbL-0925_RLatLon0.03_PT031H.grib2 2026-04-26 18:14 1.4M
20260426T12Z_MSC_CAPS_DewPointDepression_IsbL-0950_RLatLon0.03_PT031H.grib2 2026-04-26 18:14 1.4M
20260426T12Z_MSC_CAPS_DewPointDepression_IsbL-0970_RLatLon0.03_PT031H.grib2 2026-04-26 18:14 1.4M
20260426T12Z_MSC_CAPS_DewPointDepression_IsbL-0985_RLatLon0.03_PT031H.grib2 2026-04-26 18:14 1.3M
20260426T12Z_MSC_CAPS_DewPointDepression_IsbL-1000_RLatLon0.03_PT031H.grib2 2026-04-26 18:14 1.3M
20260426T12Z_MSC_CAPS_DewPointDepression_IsbL-1015_RLatLon0.03_PT031H.grib2 2026-04-26 18:14 1.3M
20260426T12Z_MSC_CAPS_DewPoint_AGL-120m_RLatLon0.03_PT031H.grib2 2026-04-26 18:14 3.7M
20260426T12Z_MSC_CAPS_DewPoint_AGL-2m_RLatLon0.03_PT031H.grib2 2026-04-26 18:14 2.1M
20260426T12Z_MSC_CAPS_DewPoint_AGL-40m_RLatLon0.03_PT031H.grib2 2026-04-26 18:14 3.8M
20260426T12Z_MSC_CAPS_DewPoint_AGL-80m_RLatLon0.03_PT031H.grib2 2026-04-26 18:14 3.7M
20260426T12Z_MSC_CAPS_DownwardLongwaveRadiationFlux-Accum_Sfc_RLatLon0.03_PT031H.grib2 2026-04-26 18:14 2.5M
20260426T12Z_MSC_CAPS_DownwardShortwaveRadiationFlux-Accum_NTAtm_RLatLon0.03_PT031H.grib2 2026-04-26 18:14 405K
20260426T12Z_MSC_CAPS_DownwardShortwaveRadiationFlux-Accum_Sfc_RLatLon0.03_PT031H.grib2 2026-04-26 18:14 2.7M
20260426T12Z_MSC_CAPS_FreezingRain-Accum_Sfc_RLatLon0.03_PT031H.grib2 2026-04-26 18:14 688K
20260426T12Z_MSC_CAPS_GeopotentialHeight_IsbL-0050_RLatLon0.03_PT031H.grib2 2026-04-26 18:14 637K
20260426T12Z_MSC_CAPS_GeopotentialHeight_IsbL-0100_RLatLon0.03_PT031H.grib2 2026-04-26 18:14 820K
20260426T12Z_MSC_CAPS_GeopotentialHeight_IsbL-0150_RLatLon0.03_PT031H.grib2 2026-04-26 18:14 615K
20260426T12Z_MSC_CAPS_GeopotentialHeight_IsbL-0175_RLatLon0.03_PT031H.grib2 2026-04-26 18:14 733K
20260426T12Z_MSC_CAPS_GeopotentialHeight_IsbL-0200_RLatLon0.03_PT031H.grib2 2026-04-26 18:14 736K
20260426T12Z_MSC_CAPS_GeopotentialHeight_IsbL-0225_RLatLon0.03_PT031H.grib2 2026-04-26 18:14 747K
20260426T12Z_MSC_CAPS_GeopotentialHeight_IsbL-0250_RLatLon0.03_PT031H.grib2 2026-04-26 18:14 757K
20260426T12Z_MSC_CAPS_GeopotentialHeight_IsbL-0275_RLatLon0.03_PT031H.grib2 2026-04-26 18:14 770K
20260426T12Z_MSC_CAPS_GeopotentialHeight_IsbL-0300_RLatLon0.03_PT031H.grib2 2026-04-26 18:14 776K
20260426T12Z_MSC_CAPS_GeopotentialHeight_IsbL-0350_RLatLon0.03_PT031H.grib2 2026-04-26 18:14 777K
20260426T12Z_MSC_CAPS_GeopotentialHeight_IsbL-0400_RLatLon0.03_PT031H.grib2 2026-04-26 18:14 772K
20260426T12Z_MSC_CAPS_GeopotentialHeight_IsbL-0450_RLatLon0.03_PT031H.grib2 2026-04-26 18:14 765K
20260426T12Z_MSC_CAPS_GeopotentialHeight_IsbL-0500_RLatLon0.03_PT031H.grib2 2026-04-26 18:14 758K
20260426T12Z_MSC_CAPS_GeopotentialHeight_IsbL-0550_RLatLon0.03_PT031H.grib2 2026-04-26 18:14 752K
20260426T12Z_MSC_CAPS_GeopotentialHeight_IsbL-0600_RLatLon0.03_PT031H.grib2 2026-04-26 18:14 742K
20260426T12Z_MSC_CAPS_GeopotentialHeight_IsbL-0650_RLatLon0.03_PT031H.grib2 2026-04-26 18:14 743K
20260426T12Z_MSC_CAPS_GeopotentialHeight_IsbL-0700_RLatLon0.03_PT031H.grib2 2026-04-26 18:14 631K
20260426T12Z_MSC_CAPS_GeopotentialHeight_IsbL-0750_RLatLon0.03_PT031H.grib2 2026-04-26 18:14 631K
20260426T12Z_MSC_CAPS_GeopotentialHeight_IsbL-0800_RLatLon0.03_PT031H.grib2 2026-04-26 18:14 633K
20260426T12Z_MSC_CAPS_GeopotentialHeight_IsbL-0850_RLatLon0.03_PT031H.grib2 2026-04-26 18:14 823K
20260426T12Z_MSC_CAPS_GeopotentialHeight_IsbL-0875_RLatLon0.03_PT031H.grib2 2026-04-26 18:14 813K
20260426T12Z_MSC_CAPS_GeopotentialHeight_IsbL-0900_RLatLon0.03_PT031H.grib2 2026-04-26 18:14 838K
20260426T12Z_MSC_CAPS_GeopotentialHeight_IsbL-0925_RLatLon0.03_PT031H.grib2 2026-04-26 18:14 848K
20260426T12Z_MSC_CAPS_GeopotentialHeight_IsbL-0950_RLatLon0.03_PT031H.grib2 2026-04-26 18:14 858K
20260426T12Z_MSC_CAPS_GeopotentialHeight_IsbL-0970_RLatLon0.03_PT031H.grib2 2026-04-26 18:14 869K
20260426T12Z_MSC_CAPS_GeopotentialHeight_IsbL-0985_RLatLon0.03_PT031H.grib2 2026-04-26 18:14 877K
20260426T12Z_MSC_CAPS_GeopotentialHeight_IsbL-1000_RLatLon0.03_PT031H.grib2 2026-04-26 18:14 884K
20260426T12Z_MSC_CAPS_GeopotentialHeight_IsbL-1015_RLatLon0.03_PT031H.grib2 2026-04-26 18:14 893K
20260426T12Z_MSC_CAPS_GeopotentialHeight_Sfc_RLatLon0.03_PT031H.grib2 2026-04-26 18:14 1.0M
20260426T12Z_MSC_CAPS_IcePellets-Accum_Sfc_RLatLon0.03_PT031H.grib2 2026-04-26 18:14 29K
20260426T12Z_MSC_CAPS_LatentHeatNetFlux_Sfc_RLatLon0.03_PT031H.grib2 2026-04-26 18:14 2.0M
20260426T12Z_MSC_CAPS_LiftedIndex-MU-VT_IsbL-0500_RLatLon0.03_PT031H.grib2 2026-04-26 18:14 3.3M
20260426T12Z_MSC_CAPS_MixedLayerThickness_Sfc_RLatLon0.03_PT031H.nc 2026-04-26 18:12 17M
20260426T12Z_MSC_CAPS_NetLongwaveRadiationFlux-Accum_Sfc_RLatLon0.03_PT031H.grib2 2026-04-26 18:14 2.7M
20260426T12Z_MSC_CAPS_NetShortwaveRadiationFlux-Accum_Sfc_RLatLon0.03_PT031H.grib2 2026-04-26 18:14 2.7M
20260426T12Z_MSC_CAPS_PlanetaryBoundaryLayerHeight_Sfc_RLatLon0.03_PT031H.grib2 2026-04-26 18:14 2.9M
20260426T12Z_MSC_CAPS_Precip-Accum_Sfc_RLatLon0.03_PT031H.grib2 2026-04-26 18:14 4.8M
20260426T12Z_MSC_CAPS_PrecipRate_Sfc_RLatLon0.03_PT031H.grib2 2026-04-26 18:14 566K
20260426T12Z_MSC_CAPS_PrecipType-Instant_Sfc_RLatLon0.03_PT031H.grib2 2026-04-26 18:14 1.9M
20260426T12Z_MSC_CAPS_Pressure_MSL_RLatLon0.03_PT031H.grib2 2026-04-26 18:14 772K
20260426T12Z_MSC_CAPS_Pressure_Sfc_RLatLon0.03_PT031H.grib2 2026-04-26 18:14 1.2M
20260426T12Z_MSC_CAPS_RadiativeTemp_Sfc_RLatLon0.03_PT031H.grib2 2026-04-26 18:14 2.1M
20260426T12Z_MSC_CAPS_Rain-Accum_Sfc_RLatLon0.03_PT031H.grib2 2026-04-26 18:14 1.9M
20260426T12Z_MSC_CAPS_RelativeHumidity_AGL-120m_RLatLon0.03_PT031H.grib2 2026-04-26 18:14 2.8M
20260426T12Z_MSC_CAPS_RelativeHumidity_AGL-2m_RLatLon0.03_PT031H.grib2 2026-04-26 18:14 2.9M
20260426T12Z_MSC_CAPS_RelativeHumidity_AGL-40m_RLatLon0.03_PT031H.grib2 2026-04-26 18:14 2.9M
20260426T12Z_MSC_CAPS_RelativeHumidity_AGL-80m_RLatLon0.03_PT031H.grib2 2026-04-26 18:14 2.8M
20260426T12Z_MSC_CAPS_RelativeHumidity_IsbL-0050_RLatLon0.03_PT031H.grib2 2026-04-26 18:14 1.0M
20260426T12Z_MSC_CAPS_RelativeHumidity_IsbL-0100_RLatLon0.03_PT031H.grib2 2026-04-26 18:14 910K
20260426T12Z_MSC_CAPS_RelativeHumidity_IsbL-0150_RLatLon0.03_PT031H.grib2 2026-04-26 18:14 629K
20260426T12Z_MSC_CAPS_RelativeHumidity_IsbL-0175_RLatLon0.03_PT031H.grib2 2026-04-26 18:14 515K
20260426T12Z_MSC_CAPS_RelativeHumidity_IsbL-0200_RLatLon0.03_PT031H.grib2 2026-04-26 18:14 670K
20260426T12Z_MSC_CAPS_RelativeHumidity_IsbL-0225_RLatLon0.03_PT031H.grib2 2026-04-26 18:14 878K
20260426T12Z_MSC_CAPS_RelativeHumidity_IsbL-0250_RLatLon0.03_PT031H.grib2 2026-04-26 18:14 1.1M
20260426T12Z_MSC_CAPS_RelativeHumidity_IsbL-0275_RLatLon0.03_PT031H.grib2 2026-04-26 18:14 1.4M
20260426T12Z_MSC_CAPS_RelativeHumidity_IsbL-0300_RLatLon0.03_PT031H.grib2 2026-04-26 18:14 1.7M
20260426T12Z_MSC_CAPS_RelativeHumidity_IsbL-0350_RLatLon0.03_PT031H.grib2 2026-04-26 18:14 1.9M
20260426T12Z_MSC_CAPS_RelativeHumidity_IsbL-0400_RLatLon0.03_PT031H.grib2 2026-04-26 18:14 1.9M
20260426T12Z_MSC_CAPS_RelativeHumidity_IsbL-0450_RLatLon0.03_PT031H.grib2 2026-04-26 18:14 2.0M
20260426T12Z_MSC_CAPS_RelativeHumidity_IsbL-0500_RLatLon0.03_PT031H.grib2 2026-04-26 18:14 2.0M
20260426T12Z_MSC_CAPS_RelativeHumidity_IsbL-0550_RLatLon0.03_PT031H.grib2 2026-04-26 18:14 2.1M
20260426T12Z_MSC_CAPS_RelativeHumidity_IsbL-0600_RLatLon0.03_PT031H.grib2 2026-04-26 18:14 2.1M
20260426T12Z_MSC_CAPS_RelativeHumidity_IsbL-0650_RLatLon0.03_PT031H.grib2 2026-04-26 18:14 2.1M
20260426T12Z_MSC_CAPS_RelativeHumidity_IsbL-0700_RLatLon0.03_PT031H.grib2 2026-04-26 18:14 2.3M
20260426T12Z_MSC_CAPS_RelativeHumidity_IsbL-0750_RLatLon0.03_PT031H.grib2 2026-04-26 18:14 2.3M
20260426T12Z_MSC_CAPS_RelativeHumidity_IsbL-0800_RLatLon0.03_PT031H.grib2 2026-04-26 18:14 2.4M
20260426T12Z_MSC_CAPS_RelativeHumidity_IsbL-0850_RLatLon0.03_PT031H.grib2 2026-04-26 18:14 2.5M
20260426T12Z_MSC_CAPS_RelativeHumidity_IsbL-0875_RLatLon0.03_PT031H.grib2 2026-04-26 18:14 2.5M
20260426T12Z_MSC_CAPS_RelativeHumidity_IsbL-0900_RLatLon0.03_PT031H.grib2 2026-04-26 18:14 2.6M
20260426T12Z_MSC_CAPS_RelativeHumidity_IsbL-0925_RLatLon0.03_PT031H.grib2 2026-04-26 18:14 2.6M
20260426T12Z_MSC_CAPS_RelativeHumidity_IsbL-0950_RLatLon0.03_PT031H.grib2 2026-04-26 18:14 2.7M
20260426T12Z_MSC_CAPS_RelativeHumidity_IsbL-0970_RLatLon0.03_PT031H.grib2 2026-04-26 18:14 2.8M
20260426T12Z_MSC_CAPS_RelativeHumidity_IsbL-0985_RLatLon0.03_PT031H.grib2 2026-04-26 18:14 2.8M
20260426T12Z_MSC_CAPS_RelativeHumidity_IsbL-1000_RLatLon0.03_PT031H.grib2 2026-04-26 18:14 2.9M
20260426T12Z_MSC_CAPS_RelativeHumidity_IsbL-1015_RLatLon0.03_PT031H.grib2 2026-04-26 18:14 2.9M
20260426T12Z_MSC_CAPS_Runoff-Accum_Sfc_RLatLon0.03_PT031H.grib2 2026-04-26 18:14 225K
20260426T12Z_MSC_CAPS_SeaIceAreaFraction_Sfc_RLatLon0.03_PT031H.nc 2026-04-26 18:12 15M
20260426T12Z_MSC_CAPS_SeaIceCompressiveStrength_Sfc_RLatLon0.03_PT031H.nc 2026-04-26 18:12 15M
20260426T12Z_MSC_CAPS_SeaIceDivergence_Sfc_RLatLon0.03_PT031H.nc 2026-04-26 18:12 15M
20260426T12Z_MSC_CAPS_SeaIceInternalPressure_Sfc_RLatLon0.03_PT031H.nc 2026-04-26 18:12 15M
20260426T12Z_MSC_CAPS_SeaIceShear_Sfc_RLatLon0.03_PT031H.nc 2026-04-26 18:12 15M
20260426T12Z_MSC_CAPS_SeaIceSnowTemp_Sfc_RLatLon0.03_PT031H.nc 2026-04-26 18:12 15M
20260426T12Z_MSC_CAPS_SeaIceSnowVolume_Sfc_RLatLon0.03_PT031H.nc 2026-04-26 18:12 15M
20260426T12Z_MSC_CAPS_SeaIceVelocityX_Sfc_RLatLon0.03_PT031H.nc 2026-04-26 18:12 15M
20260426T12Z_MSC_CAPS_SeaIceVelocityY_Sfc_RLatLon0.03_PT031H.nc 2026-04-26 18:12 15M
20260426T12Z_MSC_CAPS_SeaIceVolume_Sfc_RLatLon0.03_PT031H.nc 2026-04-26 18:12 15M
20260426T12Z_MSC_CAPS_SeaSurfaceHeight_Sfc_RLatLon0.03_PT031H.nc 2026-04-26 18:12 16M
20260426T12Z_MSC_CAPS_SeaWaterSalinity_DBS-0.5m_RLatLon0.03_PT031H.nc 2026-04-26 18:12 16M
20260426T12Z_MSC_CAPS_SeaWaterSalinity_DBS-all_RLatLon0.03_PT031H.nc 2026-04-26 18:12 107M
20260426T12Z_MSC_CAPS_SeaWaterTemp_DBS-0.5m_RLatLon0.03_PT031H.nc 2026-04-26 18:12 14M
20260426T12Z_MSC_CAPS_SeaWaterTemp_DBS-all_RLatLon0.03_PT031H.nc 2026-04-26 18:12 87M
20260426T12Z_MSC_CAPS_SeaWaterVelocityX_DBS-0.5m_RLatLon0.03_PT031H.nc 2026-04-26 18:12 17M
20260426T12Z_MSC_CAPS_SeaWaterVelocityX_DBS-all_RLatLon0.03_PT031H.nc 2026-04-26 18:12 209M
20260426T12Z_MSC_CAPS_SeaWaterVelocityY_DBS-0.5m_RLatLon0.03_PT031H.nc 2026-04-26 18:12 17M
20260426T12Z_MSC_CAPS_SeaWaterVelocityY_DBS-all_RLatLon0.03_PT031H.nc 2026-04-26 18:12 209M
20260426T12Z_MSC_CAPS_SensibleHeatNetFlux_Sfc_RLatLon0.03_PT031H.grib2 2026-04-26 18:14 2.3M
20260426T12Z_MSC_CAPS_ShowalterIndex_IsbL-0500_RLatLon0.03_PT031H.grib2 2026-04-26 18:14 4.3M
20260426T12Z_MSC_CAPS_Snow-Accum_Sfc_RLatLon0.03_PT031H.grib2 2026-04-26 18:14 4.1M
20260426T12Z_MSC_CAPS_SnowDensity_Sfc_RLatLon0.03_PT031H.grib2 2026-04-26 18:14 1.3M
20260426T12Z_MSC_CAPS_SnowDepthWaterEquivalent_Sfc_RLatLon0.03_PT031H.grib2 2026-04-26 18:14 725K
20260426T12Z_MSC_CAPS_SnowDepth_Sfc_RLatLon0.03_PT031H.grib2 2026-04-26 18:14 1.3M
20260426T12Z_MSC_CAPS_SoilTemp_DBS-0to10cm_RLatLon0.03_PT031H.grib2 2026-04-26 18:14 1.6M
20260426T12Z_MSC_CAPS_SoilTemp_Sfc_RLatLon0.03_PT031H.grib2 2026-04-26 18:14 1.9M
20260426T12Z_MSC_CAPS_SoilVolumetricIceContent_Sfc_RLatLon0.03_PT031H.grib2 2026-04-26 18:14 1.5M
20260426T12Z_MSC_CAPS_SoilVolumetricWaterContent_DBS-0to10cm_RLatLon0.03_PT031H.grib2 2026-04-26 18:14 1.1M
20260426T12Z_MSC_CAPS_SoilVolumetricWaterContent_DBS-0to1cm_RLatLon0.03_PT031H.grib2 2026-04-26 18:14 1.7M
20260426T12Z_MSC_CAPS_SpecificHumidity_AGL-120m_RLatLon0.03_PT031H.grib2 2026-04-26 18:14 1.7M
20260426T12Z_MSC_CAPS_SpecificHumidity_AGL-2m_RLatLon0.03_PT031H.grib2 2026-04-26 18:14 2.0M
20260426T12Z_MSC_CAPS_SpecificHumidity_AGL-40m_RLatLon0.03_PT031H.grib2 2026-04-26 18:14 1.8M
20260426T12Z_MSC_CAPS_SpecificHumidity_AGL-80m_RLatLon0.03_PT031H.grib2 2026-04-26 18:14 1.8M
20260426T12Z_MSC_CAPS_SpecificHumidity_IsbL-0050_RLatLon0.03_PT031H.grib2 2026-04-26 18:14 927K
20260426T12Z_MSC_CAPS_SpecificHumidity_IsbL-0100_RLatLon0.03_PT031H.grib2 2026-04-26 18:14 1.0M
20260426T12Z_MSC_CAPS_SpecificHumidity_IsbL-0150_RLatLon0.03_PT031H.grib2 2026-04-26 18:14 1.0M
20260426T12Z_MSC_CAPS_SpecificHumidity_IsbL-0175_RLatLon0.03_PT031H.grib2 2026-04-26 18:14 1.0M
20260426T12Z_MSC_CAPS_SpecificHumidity_IsbL-0200_RLatLon0.03_PT031H.grib2 2026-04-26 18:14 890K
20260426T12Z_MSC_CAPS_SpecificHumidity_IsbL-0225_RLatLon0.03_PT031H.grib2 2026-04-26 18:14 844K
20260426T12Z_MSC_CAPS_SpecificHumidity_IsbL-0250_RLatLon0.03_PT031H.grib2 2026-04-26 18:14 1.1M
20260426T12Z_MSC_CAPS_SpecificHumidity_IsbL-0275_RLatLon0.03_PT031H.grib2 2026-04-26 18:14 1.1M
20260426T12Z_MSC_CAPS_SpecificHumidity_IsbL-0300_RLatLon0.03_PT031H.grib2 2026-04-26 18:14 1.0M
20260426T12Z_MSC_CAPS_SpecificHumidity_IsbL-0350_RLatLon0.03_PT031H.grib2 2026-04-26 18:14 955K
20260426T12Z_MSC_CAPS_SpecificHumidity_IsbL-0400_RLatLon0.03_PT031H.grib2 2026-04-26 18:14 1.1M
20260426T12Z_MSC_CAPS_SpecificHumidity_IsbL-0450_RLatLon0.03_PT031H.grib2 2026-04-26 18:14 1.1M
20260426T12Z_MSC_CAPS_SpecificHumidity_IsbL-0500_RLatLon0.03_PT031H.grib2 2026-04-26 18:14 1.3M
20260426T12Z_MSC_CAPS_SpecificHumidity_IsbL-0550_RLatLon0.03_PT031H.grib2 2026-04-26 18:14 1.2M
20260426T12Z_MSC_CAPS_SpecificHumidity_IsbL-0600_RLatLon0.03_PT031H.grib2 2026-04-26 18:14 1.4M
20260426T12Z_MSC_CAPS_SpecificHumidity_IsbL-0650_RLatLon0.03_PT031H.grib2 2026-04-26 18:14 1.5M
20260426T12Z_MSC_CAPS_SpecificHumidity_IsbL-0700_RLatLon0.03_PT031H.grib2 2026-04-26 18:14 1.6M
20260426T12Z_MSC_CAPS_SpecificHumidity_IsbL-0750_RLatLon0.03_PT031H.grib2 2026-04-26 18:14 1.4M
20260426T12Z_MSC_CAPS_SpecificHumidity_IsbL-0800_RLatLon0.03_PT031H.grib2 2026-04-26 18:14 1.5M
20260426T12Z_MSC_CAPS_SpecificHumidity_IsbL-0850_RLatLon0.03_PT031H.grib2 2026-04-26 18:14 1.6M
20260426T12Z_MSC_CAPS_SpecificHumidity_IsbL-0875_RLatLon0.03_PT031H.grib2 2026-04-26 18:14 1.7M
20260426T12Z_MSC_CAPS_SpecificHumidity_IsbL-0900_RLatLon0.03_PT031H.grib2 2026-04-26 18:14 1.8M
20260426T12Z_MSC_CAPS_SpecificHumidity_IsbL-0925_RLatLon0.03_PT031H.grib2 2026-04-26 18:14 1.8M
20260426T12Z_MSC_CAPS_SpecificHumidity_IsbL-0950_RLatLon0.03_PT031H.grib2 2026-04-26 18:14 1.9M
20260426T12Z_MSC_CAPS_SpecificHumidity_IsbL-0970_RLatLon0.03_PT031H.grib2 2026-04-26 18:14 1.9M
20260426T12Z_MSC_CAPS_SpecificHumidity_IsbL-0985_RLatLon0.03_PT031H.grib2 2026-04-26 18:14 2.0M
20260426T12Z_MSC_CAPS_SpecificHumidity_IsbL-1000_RLatLon0.03_PT031H.grib2 2026-04-26 18:14 2.0M
20260426T12Z_MSC_CAPS_SpecificHumidity_IsbL-1015_RLatLon0.03_PT031H.grib2 2026-04-26 18:14 2.0M
20260426T12Z_MSC_CAPS_SpecificHumidity_Sfc_RLatLon0.03_PT031H.grib2 2026-04-26 18:14 2.5M
20260426T12Z_MSC_CAPS_StormRelativeHelicity_Sfc_RLatLon0.03_PT031H.grib2 2026-04-26 18:14 3.3M
20260426T12Z_MSC_CAPS_Thickness_IsbL-1000to0500_RLatLon0.03_PT031H.grib2 2026-04-26 18:14 435K
20260426T12Z_MSC_CAPS_TotalCloudCover_Sfc_RLatLon0.03_PT031H.grib2 2026-04-26 18:14 3.8M
20260426T12Z_MSC_CAPS_TurboclineDepth_Sfc_RLatLon0.03_PT031H.nc 2026-04-26 18:12 16M
20260426T12Z_MSC_CAPS_UpwardLongwaveRadiationFlux_NTAtm_RLatLon0.03_PT031H.grib2 2026-04-26 18:14 2.9M
20260426T12Z_MSC_CAPS_UpwardShortwaveRadiationFlux_NTAtm_RLatLon0.03_PT031H.grib2 2026-04-26 18:14 2.6M
20260426T12Z_MSC_CAPS_VerticalVelocity_IsbL-0250_RLatLon0.03_PT031H.grib2 2026-04-26 18:14 863K
20260426T12Z_MSC_CAPS_VerticalVelocity_IsbL-0500_RLatLon0.03_PT031H.grib2 2026-04-26 18:14 1.1M
20260426T12Z_MSC_CAPS_VerticalVelocity_IsbL-0700_RLatLon0.03_PT031H.grib2 2026-04-26 18:14 1.0M
20260426T12Z_MSC_CAPS_VerticalVelocity_IsbL-0850_RLatLon0.03_PT031H.grib2 2026-04-26 18:14 1.1M
20260426T12Z_MSC_CAPS_VerticalVelocity_IsbL-1000_RLatLon0.03_PT031H.grib2 2026-04-26 18:14 1.1M
20260426T12Z_MSC_CAPS_WindDir_AGL-10m_RLatLon0.03_PT031H.grib2 2026-04-26 18:14 2.4M
20260426T12Z_MSC_CAPS_WindDir_AGL-120m_RLatLon0.03_PT031H.grib2 2026-04-26 18:14 1.3M
20260426T12Z_MSC_CAPS_WindDir_AGL-40m_RLatLon0.03_PT031H.grib2 2026-04-26 18:14 1.4M
20260426T12Z_MSC_CAPS_WindDir_AGL-80m_RLatLon0.03_PT031H.grib2 2026-04-26 18:14 1.4M
20260426T12Z_MSC_CAPS_WindDir_IsbL-0050_RLatLon0.03_PT031H.grib2 2026-04-26 18:14 1.0M
20260426T12Z_MSC_CAPS_WindDir_IsbL-0100_RLatLon0.03_PT031H.grib2 2026-04-26 18:14 1.0M
20260426T12Z_MSC_CAPS_WindDir_IsbL-0150_RLatLon0.03_PT031H.grib2 2026-04-26 18:14 1.0M
20260426T12Z_MSC_CAPS_WindDir_IsbL-0175_RLatLon0.03_PT031H.grib2 2026-04-26 18:14 1.0M
20260426T12Z_MSC_CAPS_WindDir_IsbL-0200_RLatLon0.03_PT031H.grib2 2026-04-26 18:14 1.1M
20260426T12Z_MSC_CAPS_WindDir_IsbL-0225_RLatLon0.03_PT031H.grib2 2026-04-26 18:14 1.1M
20260426T12Z_MSC_CAPS_WindDir_IsbL-0250_RLatLon0.03_PT031H.grib2 2026-04-26 18:14 1.1M
20260426T12Z_MSC_CAPS_WindDir_IsbL-0275_RLatLon0.03_PT031H.grib2 2026-04-26 18:14 1.1M
20260426T12Z_MSC_CAPS_WindDir_IsbL-0300_RLatLon0.03_PT031H.grib2 2026-04-26 18:14 1.1M
20260426T12Z_MSC_CAPS_WindDir_IsbL-0350_RLatLon0.03_PT031H.grib2 2026-04-26 18:14 1.1M
20260426T12Z_MSC_CAPS_WindDir_IsbL-0400_RLatLon0.03_PT031H.grib2 2026-04-26 18:14 1.1M
20260426T12Z_MSC_CAPS_WindDir_IsbL-0450_RLatLon0.03_PT031H.grib2 2026-04-26 18:14 1.2M
20260426T12Z_MSC_CAPS_WindDir_IsbL-0500_RLatLon0.03_PT031H.grib2 2026-04-26 18:14 1.3M
20260426T12Z_MSC_CAPS_WindDir_IsbL-0550_RLatLon0.03_PT031H.grib2 2026-04-26 18:14 1.3M
20260426T12Z_MSC_CAPS_WindDir_IsbL-0600_RLatLon0.03_PT031H.grib2 2026-04-26 18:14 1.4M
20260426T12Z_MSC_CAPS_WindDir_IsbL-0650_RLatLon0.03_PT031H.grib2 2026-04-26 18:14 1.4M
20260426T12Z_MSC_CAPS_WindDir_IsbL-0700_RLatLon0.03_PT031H.grib2 2026-04-26 18:14 1.6M
20260426T12Z_MSC_CAPS_WindDir_IsbL-0750_RLatLon0.03_PT031H.grib2 2026-04-26 18:14 1.6M
20260426T12Z_MSC_CAPS_WindDir_IsbL-0800_RLatLon0.03_PT031H.grib2 2026-04-26 18:14 1.7M
20260426T12Z_MSC_CAPS_WindDir_IsbL-0850_RLatLon0.03_PT031H.grib2 2026-04-26 18:14 1.8M
20260426T12Z_MSC_CAPS_WindDir_IsbL-0875_RLatLon0.03_PT031H.grib2 2026-04-26 18:14 2.0M
20260426T12Z_MSC_CAPS_WindDir_IsbL-0900_RLatLon0.03_PT031H.grib2 2026-04-26 18:14 2.0M
20260426T12Z_MSC_CAPS_WindDir_IsbL-0925_RLatLon0.03_PT031H.grib2 2026-04-26 18:14 2.1M
20260426T12Z_MSC_CAPS_WindDir_IsbL-0950_RLatLon0.03_PT031H.grib2 2026-04-26 18:14 2.2M
20260426T12Z_MSC_CAPS_WindDir_IsbL-0970_RLatLon0.03_PT031H.grib2 2026-04-26 18:14 2.2M
20260426T12Z_MSC_CAPS_WindDir_IsbL-0985_RLatLon0.03_PT031H.grib2 2026-04-26 18:14 2.2M
20260426T12Z_MSC_CAPS_WindDir_IsbL-1000_RLatLon0.03_PT031H.grib2 2026-04-26 18:14 2.3M
20260426T12Z_MSC_CAPS_WindDir_IsbL-1015_RLatLon0.03_PT031H.grib2 2026-04-26 18:14 2.4M
20260426T12Z_MSC_CAPS_WindGust-Max_AGL-10m_RLatLon0.03_PT031H.grib2 2026-04-26 18:14 2.3M
20260426T12Z_MSC_CAPS_WindGust-Min_AGL-10m_RLatLon0.03_PT031H.grib2 2026-04-26 18:14 2.3M
20260426T12Z_MSC_CAPS_WindGust_AGL-10m_RLatLon0.03_PT031H.grib2 2026-04-26 18:14 2.4M
20260426T12Z_MSC_CAPS_WindSpeed_AGL-10m_RLatLon0.03_PT031H.grib2 2026-04-26 18:14 2.1M
20260426T12Z_MSC_CAPS_WindSpeed_AGL-120m_RLatLon0.03_PT031H.grib2 2026-04-26 18:14 1.2M
20260426T12Z_MSC_CAPS_WindSpeed_AGL-40m_RLatLon0.03_PT031H.grib2 2026-04-26 18:14 1.3M
20260426T12Z_MSC_CAPS_WindSpeed_AGL-80m_RLatLon0.03_PT031H.grib2 2026-04-26 18:14 1.2M
20260426T12Z_MSC_CAPS_WindSpeed_IsbL-0050_RLatLon0.03_PT031H.grib2 2026-04-26 18:14 929K
20260426T12Z_MSC_CAPS_WindSpeed_IsbL-0100_RLatLon0.03_PT031H.grib2 2026-04-26 18:14 963K
20260426T12Z_MSC_CAPS_WindSpeed_IsbL-0150_RLatLon0.03_PT031H.grib2 2026-04-26 18:14 1.0M
20260426T12Z_MSC_CAPS_WindSpeed_IsbL-0175_RLatLon0.03_PT031H.grib2 2026-04-26 18:14 1.1M
20260426T12Z_MSC_CAPS_WindSpeed_IsbL-0200_RLatLon0.03_PT031H.grib2 2026-04-26 18:14 920K
20260426T12Z_MSC_CAPS_WindSpeed_IsbL-0225_RLatLon0.03_PT031H.grib2 2026-04-26 18:14 1.2M
20260426T12Z_MSC_CAPS_WindSpeed_IsbL-0250_RLatLon0.03_PT031H.grib2 2026-04-26 18:14 959K
20260426T12Z_MSC_CAPS_WindSpeed_IsbL-0275_RLatLon0.03_PT031H.grib2 2026-04-26 18:14 967K
20260426T12Z_MSC_CAPS_WindSpeed_IsbL-0300_RLatLon0.03_PT031H.grib2 2026-04-26 18:14 1.0M
20260426T12Z_MSC_CAPS_WindSpeed_IsbL-0350_RLatLon0.03_PT031H.grib2 2026-04-26 18:14 1.0M
20260426T12Z_MSC_CAPS_WindSpeed_IsbL-0400_RLatLon0.03_PT031H.grib2 2026-04-26 18:14 1.0M
20260426T12Z_MSC_CAPS_WindSpeed_IsbL-0450_RLatLon0.03_PT031H.grib2 2026-04-26 18:14 1.0M
20260426T12Z_MSC_CAPS_WindSpeed_IsbL-0500_RLatLon0.03_PT031H.grib2 2026-04-26 18:14 1.0M
20260426T12Z_MSC_CAPS_WindSpeed_IsbL-0550_RLatLon0.03_PT031H.grib2 2026-04-26 18:14 1.0M
20260426T12Z_MSC_CAPS_WindSpeed_IsbL-0600_RLatLon0.03_PT031H.grib2 2026-04-26 18:14 1.4M
20260426T12Z_MSC_CAPS_WindSpeed_IsbL-0650_RLatLon0.03_PT031H.grib2 2026-04-26 18:14 1.4M
20260426T12Z_MSC_CAPS_WindSpeed_IsbL-0700_RLatLon0.03_PT031H.grib2 2026-04-26 18:14 1.5M
20260426T12Z_MSC_CAPS_WindSpeed_IsbL-0750_RLatLon0.03_PT031H.grib2 2026-04-26 18:14 1.6M
20260426T12Z_MSC_CAPS_WindSpeed_IsbL-0800_RLatLon0.03_PT031H.grib2 2026-04-26 18:14 1.7M
20260426T12Z_MSC_CAPS_WindSpeed_IsbL-0850_RLatLon0.03_PT031H.grib2 2026-04-26 18:14 1.7M
20260426T12Z_MSC_CAPS_WindSpeed_IsbL-0875_RLatLon0.03_PT031H.grib2 2026-04-26 18:14 1.7M
20260426T12Z_MSC_CAPS_WindSpeed_IsbL-0900_RLatLon0.03_PT031H.grib2 2026-04-26 18:14 1.8M
20260426T12Z_MSC_CAPS_WindSpeed_IsbL-0925_RLatLon0.03_PT031H.grib2 2026-04-26 18:14 1.8M
20260426T12Z_MSC_CAPS_WindSpeed_IsbL-0950_RLatLon0.03_PT031H.grib2 2026-04-26 18:14 1.9M
20260426T12Z_MSC_CAPS_WindSpeed_IsbL-0970_RLatLon0.03_PT031H.grib2 2026-04-26 18:14 2.0M
20260426T12Z_MSC_CAPS_WindSpeed_IsbL-0985_RLatLon0.03_PT031H.grib2 2026-04-26 18:14 2.0M
20260426T12Z_MSC_CAPS_WindSpeed_IsbL-1000_RLatLon0.03_PT031H.grib2 2026-04-26 18:14 2.1M
20260426T12Z_MSC_CAPS_WindSpeed_IsbL-1015_RLatLon0.03_PT031H.grib2 2026-04-26 18:14 2.1M
20260426T12Z_MSC_CAPS_WindU_AGL-10m_RLatLon0.03_PT031H.grib2 2026-04-26 18:14 1.5M
20260426T12Z_MSC_CAPS_WindU_AGL-120m_RLatLon0.03_PT031H.grib2 2026-04-26 18:14 1.0M
20260426T12Z_MSC_CAPS_WindU_AGL-40m_RLatLon0.03_PT031H.grib2 2026-04-26 18:14 939K
20260426T12Z_MSC_CAPS_WindU_AGL-80m_RLatLon0.03_PT031H.grib2 2026-04-26 18:14 914K
20260426T12Z_MSC_CAPS_WindU_IsbL-0050_RLatLon0.03_PT031H.grib2 2026-04-26 18:14 762K
20260426T12Z_MSC_CAPS_WindU_IsbL-0100_RLatLon0.03_PT031H.grib2 2026-04-26 18:14 960K
20260426T12Z_MSC_CAPS_WindU_IsbL-0150_RLatLon0.03_PT031H.grib2 2026-04-26 18:14 911K
20260426T12Z_MSC_CAPS_WindU_IsbL-0175_RLatLon0.03_PT031H.grib2 2026-04-26 18:14 717K
20260426T12Z_MSC_CAPS_WindU_IsbL-0200_RLatLon0.03_PT031H.grib2 2026-04-26 18:14 858K
20260426T12Z_MSC_CAPS_WindU_IsbL-0225_RLatLon0.03_PT031H.grib2 2026-04-26 18:14 880K
20260426T12Z_MSC_CAPS_WindU_IsbL-0250_RLatLon0.03_PT031H.grib2 2026-04-26 18:14 904K
20260426T12Z_MSC_CAPS_WindU_IsbL-0275_RLatLon0.03_PT031H.grib2 2026-04-26 18:14 704K
20260426T12Z_MSC_CAPS_WindU_IsbL-0300_RLatLon0.03_PT031H.grib2 2026-04-26 18:14 714K
20260426T12Z_MSC_CAPS_WindU_IsbL-0350_RLatLon0.03_PT031H.grib2 2026-04-26 18:14 933K
20260426T12Z_MSC_CAPS_WindU_IsbL-0400_RLatLon0.03_PT031H.grib2 2026-04-26 18:14 938K
20260426T12Z_MSC_CAPS_WindU_IsbL-0450_RLatLon0.03_PT031H.grib2 2026-04-26 18:14 957K
20260426T12Z_MSC_CAPS_WindU_IsbL-0500_RLatLon0.03_PT031H.grib2 2026-04-26 18:14 1.0M
20260426T12Z_MSC_CAPS_WindU_IsbL-0550_RLatLon0.03_PT031H.grib2 2026-04-26 18:14 1.0M
20260426T12Z_MSC_CAPS_WindU_IsbL-0600_RLatLon0.03_PT031H.grib2 2026-04-26 18:14 1.0M
20260426T12Z_MSC_CAPS_WindU_IsbL-0650_RLatLon0.03_PT031H.grib2 2026-04-26 18:14 1.0M
20260426T12Z_MSC_CAPS_WindU_IsbL-0700_RLatLon0.03_PT031H.grib2 2026-04-26 18:14 1.1M
20260426T12Z_MSC_CAPS_WindU_IsbL-0750_RLatLon0.03_PT031H.grib2 2026-04-26 18:14 1.1M
20260426T12Z_MSC_CAPS_WindU_IsbL-0800_RLatLon0.03_PT031H.grib2 2026-04-26 18:14 1.2M
20260426T12Z_MSC_CAPS_WindU_IsbL-0850_RLatLon0.03_PT031H.grib2 2026-04-26 18:14 1.3M
20260426T12Z_MSC_CAPS_WindU_IsbL-0875_RLatLon0.03_PT031H.grib2 2026-04-26 18:14 1.3M
20260426T12Z_MSC_CAPS_WindU_IsbL-0900_RLatLon0.03_PT031H.grib2 2026-04-26 18:14 1.3M
20260426T12Z_MSC_CAPS_WindU_IsbL-0925_RLatLon0.03_PT031H.grib2 2026-04-26 18:14 1.4M
20260426T12Z_MSC_CAPS_WindU_IsbL-0950_RLatLon0.03_PT031H.grib2 2026-04-26 18:14 1.4M
20260426T12Z_MSC_CAPS_WindU_IsbL-0970_RLatLon0.03_PT031H.grib2 2026-04-26 18:14 1.4M
20260426T12Z_MSC_CAPS_WindU_IsbL-0985_RLatLon0.03_PT031H.grib2 2026-04-26 18:14 1.4M
20260426T12Z_MSC_CAPS_WindU_IsbL-1000_RLatLon0.03_PT031H.grib2 2026-04-26 18:14 1.4M
20260426T12Z_MSC_CAPS_WindU_IsbL-1015_RLatLon0.03_PT031H.grib2 2026-04-26 18:14 1.5M
20260426T12Z_MSC_CAPS_WindV_AGL-10m_RLatLon0.03_PT031H.grib2 2026-04-26 18:14 1.5M
20260426T12Z_MSC_CAPS_WindV_AGL-120m_RLatLon0.03_PT031H.grib2 2026-04-26 18:14 905K
20260426T12Z_MSC_CAPS_WindV_AGL-40m_RLatLon0.03_PT031H.grib2 2026-04-26 18:14 941K
20260426T12Z_MSC_CAPS_WindV_AGL-80m_RLatLon0.03_PT031H.grib2 2026-04-26 18:14 913K
20260426T12Z_MSC_CAPS_WindV_IsbL-0050_RLatLon0.03_PT031H.grib2 2026-04-26 18:14 941K
20260426T12Z_MSC_CAPS_WindV_IsbL-0100_RLatLon0.03_PT031H.grib2 2026-04-26 18:14 794K
20260426T12Z_MSC_CAPS_WindV_IsbL-0150_RLatLon0.03_PT031H.grib2 2026-04-26 18:14 909K
20260426T12Z_MSC_CAPS_WindV_IsbL-0175_RLatLon0.03_PT031H.grib2 2026-04-26 18:14 715K
20260426T12Z_MSC_CAPS_WindV_IsbL-0200_RLatLon0.03_PT031H.grib2 2026-04-26 18:14 852K
20260426T12Z_MSC_CAPS_WindV_IsbL-0225_RLatLon0.03_PT031H.grib2 2026-04-26 18:14 872K
20260426T12Z_MSC_CAPS_WindV_IsbL-0250_RLatLon0.03_PT031H.grib2 2026-04-26 18:14 898K
20260426T12Z_MSC_CAPS_WindV_IsbL-0275_RLatLon0.03_PT031H.grib2 2026-04-26 18:14 909K
20260426T12Z_MSC_CAPS_WindV_IsbL-0300_RLatLon0.03_PT031H.grib2 2026-04-26 18:14 919K
20260426T12Z_MSC_CAPS_WindV_IsbL-0350_RLatLon0.03_PT031H.grib2 2026-04-26 18:14 932K
20260426T12Z_MSC_CAPS_WindV_IsbL-0400_RLatLon0.03_PT031H.grib2 2026-04-26 18:14 939K
20260426T12Z_MSC_CAPS_WindV_IsbL-0450_RLatLon0.03_PT031H.grib2 2026-04-26 18:14 958K
20260426T12Z_MSC_CAPS_WindV_IsbL-0500_RLatLon0.03_PT031H.grib2 2026-04-26 18:14 1.0M
20260426T12Z_MSC_CAPS_WindV_IsbL-0550_RLatLon0.03_PT031H.grib2 2026-04-26 18:14 1.0M
20260426T12Z_MSC_CAPS_WindV_IsbL-0600_RLatLon0.03_PT031H.grib2 2026-04-26 18:14 1.0M
20260426T12Z_MSC_CAPS_WindV_IsbL-0650_RLatLon0.03_PT031H.grib2 2026-04-26 18:14 952K
20260426T12Z_MSC_CAPS_WindV_IsbL-0700_RLatLon0.03_PT031H.grib2 2026-04-26 18:14 1.1M
20260426T12Z_MSC_CAPS_WindV_IsbL-0750_RLatLon0.03_PT031H.grib2 2026-04-26 18:14 1.0M
20260426T12Z_MSC_CAPS_WindV_IsbL-0800_RLatLon0.03_PT031H.grib2 2026-04-26 18:14 1.1M
20260426T12Z_MSC_CAPS_WindV_IsbL-0850_RLatLon0.03_PT031H.grib2 2026-04-26 18:14 1.2M
20260426T12Z_MSC_CAPS_WindV_IsbL-0875_RLatLon0.03_PT031H.grib2 2026-04-26 18:14 1.3M
20260426T12Z_MSC_CAPS_WindV_IsbL-0900_RLatLon0.03_PT031H.grib2 2026-04-26 18:14 1.3M
20260426T12Z_MSC_CAPS_WindV_IsbL-0925_RLatLon0.03_PT031H.grib2 2026-04-26 18:14 1.4M
20260426T12Z_MSC_CAPS_WindV_IsbL-0950_RLatLon0.03_PT031H.grib2 2026-04-26 18:14 1.4M
20260426T12Z_MSC_CAPS_WindV_IsbL-0970_RLatLon0.03_PT031H.grib2 2026-04-26 18:14 1.4M
20260426T12Z_MSC_CAPS_WindV_IsbL-0985_RLatLon0.03_PT031H.grib2 2026-04-26 18:14 1.4M
20260426T12Z_MSC_CAPS_WindV_IsbL-1000_RLatLon0.03_PT031H.grib2 2026-04-26 18:14 1.5M
20260426T12Z_MSC_CAPS_WindV_IsbL-1015_RLatLon0.03_PT031H.grib2 2026-04-26 18:14 1.5M